    Orbital elements:
    2001 BE10                                                            PHA 0.042D
    Epoch 2003 Dec. 27.0 TT = JDT 2453000.5                 MPC
    M  92.98319              (2000.0)            P               Q
    n   1.31886060     Peri.   30.62071     +0.83188006     +0.48708882
    a   0.8235124      Node   297.89036     -0.55032293     +0.66226540
    e   0.3690069      Incl.   17.51056     -0.07155580     +0.56934086
    P   0.75           H   18.9           G   0.15           U   5
    Residuals in seconds of arc
    010118 704  0.4-  0.1+    010121 726  0.5+  0.4+    010125 127  0.1+  0.1+
    010118 704  0.2+  0.6+    010121 726  0.4+  0.4+    010126 846  0.4-  0.4+
    010118 704  0.8-  0.2+    010121 726  0.6+  0.1+    010126 846  0.4-  0.5+
    010118 046  0.3-  0.1-    010121 726  0.7+  0.6+    010126 127  0.2-  0.5+
    010118 046  0.4-  0.1-    010121 726  0.7+  0.3+    010126 127  0.4-  0.4+
    010118 046  0.3-  0.3+    010121 670  0.1+  0.1+    010126 127  0.0   0.9+
    010118 046  0.3-  0.1+    010121 704  0.3+  0.5+    010126 127  0.2-  0.6+
    010118 046  0.4-  0.1+    010121 704  0.6+  0.4+    010127 642  1.0+  0.3-
    010118 046  0.6-  0.0     010121 726  0.7+  0.4+    010127 642  0.0   1.0+
    010118 046  0.4-  0.1+    010121 726  0.7+  0.5+    010127 642  0.5-  1.7+
    010118 046  0.5-  0.1-    010121 704  0.2-  0.5+    010127 642  1.2-  0.3-
    010118 046  0.4-  0.1+    010121 726  0.5+  0.5+    010127 151  0.1-  0.8+
    010119 670  0.2-  0.2-    010121 726  0.4+  0.7+    010127 151  0.0   0.3+
    010119 670  0.3-  0.1+    010121 726  0.6+  0.7+    010127 151  0.1-  0.5+
    010119 670  0.2-  0.1+    010121 726  0.6+  0.7+    010127 151  0.1-  0.5+
    010119 046  0.3-  0.1-    010121 704  0.0   0.5+    010127 151  0.0   0.7+
    010119 046  0.4-  0.1+    010121 704  0.1+  0.3+    010127 151  0.0   0.4+
    010119 046  0.4-  0.2+    010121 704  0.7-  0.5+    010127 151  0.1-  0.6+
    010119 046  0.3-  0.3+    010121 704  0.1-  0.6+    010128 642  0.5-  0.2+
    010119 046  0.4-  0.0     010121 704  0.0   0.4+    010128 642  1.3+  1.0-
    010119 046  0.4-  0.4+    010121 704  0.0   0.4+    010128 642  0.8+  1.6-
    010119 946  0.3+  0.5-    010121 739  0.2+  0.5+    010128 670  0.1+  0.1-
    010119 946  0.2+  0.2-    010121 739  0.2+  0.4+    010128 670  0.1-  0.0
    010119 946  0.3+  0.2-    010121 739  0.2+  0.9+    010128 670  0.1+  0.2+
    010119 946  0.3+  0.3-    010121 704  0.1+  0.4+    010128 046  0.1+  0.1+
    010119 165  0.3+  0.6-    010121 704  0.1+  0.5+    010128 046  0.1+  0.1+
    010119 165  0.2+  0.2-    010121 704  0.2-  1.2+    010128 046  0.3+  0.4+
    010119 165  0.4+  0.5-    010121 704  0.2+  0.4+    010128 046  0.2+  0.2+
    010119 165  0.2+  0.7-    010121 704  0.1+  0.7+    010128 046  0.2+  0.1+
    010119 595  0.7+  0.8-    010121 670  0.3+  0.3+    010201 846  0.4+  0.0
    010119 595  0.5+  1.0-    010121 704  0.0   0.4+    010201 846  0.5+  0.2-
    010119 595  0.2+  0.9-    010121 670  0.3+  0.4+    010201 322 (2.4+  3.9-)
    010119 595  0.4+  1.0-    010121 918  0.8-  0.1-    010201 322 (0.4+  4.7-)
    010120 844  0.5-  0.1+    010121 918  0.2+  0.2-    010201 108 (3.8- 35.6-)
    010120 726  0.0   0.6-    010121 918  0.1-  0.4-    010201 108 (3.3-  0.8-)
    010120 844  0.3-  0.1-    010121 349  0.1+  0.2-    010201 108  0.5+  0.1+
    010120 726  0.2+  0.7-    010121 349  0.4-  0.3+    010201 108 (7.5+  2.5+)
    010120 726  0.3+  0.9-    010121 349  0.4-  0.0     010201 046  0.2-  0.2+
    010120 726  0.1+  0.9-    010121 349  0.2+  0.1-    010201 046  0.5-  0.0
    010120 726  0.1+  0.6-    010121 349  0.3-  0.1+    010201 046  0.2-  0.1-
    010120 726  0.4+  0.6-    010121 104  0.0   0.3-    010202 739  0.7-  1.2-
    010120 726  0.2+  0.5-    010121 104  0.2-  0.1+    010202 739  0.5+  1.0-
    010120 726  0.1+  0.5-    010121 104  0.1-  0.3-    010202 739  0.6-  0.3+
    010120 726  0.0   0.7-    010121 104  0.1-  0.2-    010202 587  0.1+  1.3-
    010120 726  0.2+  0.6-    010121 587  0.3-  0.2-    010202 587  0.4-  0.9-
    010120 726  0.1-  0.4-    010121 587  0.3-  0.0     010203 670  0.3-  0.2+
    010120 726  0.2+  0.5-    010121 046  0.3-  0.1-    010203 670  0.2+  0.3+
    010120 726  0.2+  0.6-    010121 046  0.3-  0.3+    010208 046  0.2+  0.1+
    010120 726  0.4+  0.6-    010121 046  0.3-  0.0     010208 046  0.1+  0.0
    010120 726  0.2+  0.5-    010121 046  0.2-  0.1+    010208 046  0.0   0.2+
    010120 726  0.0   0.6-    010121 595  0.3-  0.3+    010208 046  0.1-  0.1+
    010120 726  0.2+  0.6-    010121 595  0.1-  0.5+    010208 540  1.3-  1.9-
    010120 726  0.2-  1.0-    010122 726  0.7-  0.4+    010208 540  0.3-  0.9-
    010120 726  0.2+  0.5-    010122 726  0.6-  0.5+    010208 540  0.9-  0.5-
    010120 726  0.0   0.7-    010122 726  0.6-  0.3+    010210 118  0.3-  0.4-
    010120 704  0.0   1.4-    010122 726  0.5-  0.5+    010210 118  0.4-  0.3-
    010120 704  0.2-  0.3-    010122 726  1.4-  0.2+    010210 118  0.2+  0.5-
    010120 704  0.3-  0.2+    010122 726  0.9-  0.3+    010211 118  1.4+  0.8+
    010120 704  0.2-  0.2-    010122 726  1.0-  0.0     010211 118  0.7+  1.0+
    010120 704  0.4-  0.1+    010122 726  0.8-  0.6+    010216 204  0.1-  0.5-
    010120 704  0.1-  0.1-    010122 726  0.5-  0.4+    010216 204  0.0   0.4-
    010120 704  0.5-  0.1+    010123 726  0.3-  0.4-    010218 587  1.3+  0.6-
    010120 704  0.3-  0.0     010123 726  0.4-  0.5-    010218 587  1.0-  0.4+
    010120 704  0.5-  0.1+    010123 726  0.1+  0.0     010219 360  0.0   0.1+
    010120 704  0.5-  0.2+    010123 726  0.0   0.2-    010219 360  0.5+  0.1-
    010120 422  0.2-  0.3-    010123 726  0.1+  0.7-    010219 360  0.3+  0.7-
    010120 422  0.3-  0.1-    010123 726  0.1-  0.4-    010227 118  0.7+  0.2-
    010120 422  0.2-  0.2-    010123 642  0.2+  0.7-    010227 118  0.6+  0.2+
    010120 422  0.1-  0.3-    010123 642  0.9-  0.9-    010227 118  1.8+  0.5+
    010120 952  0.1-  0.0     010123 642  1.5-  0.7+    010318 360  0.2+  0.4+
    010120 952  0.3-  0.3+    010123 642 (2.2-  1.6-)   010318 360  0.2-  0.9-
    010120 952  0.2-  0.0     010123 850  0.1-  0.3-    010318 360  0.3+  0.9-
    010120 952  0.6-  0.6+    010123 850  0.0   0.5-    010413 413  0.2-  0.4-
    010120 952  0.3-  0.5+    010123 850  0.1+  0.3-    010413 413  0.2+  0.3-
    010120 620  1.2+  0.3+    010123 850  0.1-  0.2+    010413 413  0.2-  0.3-
    010120 620  1.2+  0.6+    010123 850 (0.2+  5.1-)   031224 540  0.1+  0.1-
    010120 620  0.8+  0.3+    010123 919  0.8+  0.0     031224 540  1.5-  0.1+
    010120 620  0.9+  0.3+    010123 919  0.1+  0.2-    031224 540  0.2+  0.2-
    010120 620  0.8+  0.3+    010123 919  0.6+  0.0     031224 540  0.1+  0.0
    010120 620  0.7+  0.7+    010123 850  0.3-  0.1+    031225 946  0.3+  0.2-
    010120 620  0.5+  0.4+    010123 850  0.1+  0.2+    031225 540  0.4+  0.1-
    010120 620  0.5+  1.2-    010123 850  0.2-  0.2+    031225 540  0.4+  0.2-
    010120 620  0.7+  0.1+    010123 850 (0.0   5.3-)   031225 946  0.1-  0.2-
    010120 620  0.9+  0.3+    010124 739 (0.2+  2.7-)   031225 620  0.1+  0.4-
    010120 620  0.8+  0.4+    010124 739  0.4+  1.8-    031225 540  0.1+  0.3-
    010121 726  0.4+  0.2+    010124 739 (0.5+  2.0-)   031225 620  0.1-  0.3+
    010121 726  0.6+  0.4+    010125 850  0.1-  0.0     031225 946  0.2+  0.1-
    010121 726  0.2+  0.1+    010125 850  0.4-  0.2+    031225 620  0.1+  0.6+
    010121 726  0.9+  0.4+    010125 850  0.0   0.0
    010121 726  0.8+  0.3+    010125 127  0.2-  0.3+
    
    Ephemeris:
    2001 BE10                a,e,i = 0.82, 0.37, 18                  q = 0.5196
    Date    TT    R. A. (2000) Decl.     Delta      r     Elong.  Phase     V
    2003 12 17    15 39.83   +21 13.6    0.197    0.879    52.8   116.9    19.7
    2003 12 27    15 01.17   +24 11.3    0.139    0.940    67.8   104.3    18.3
    2004 01 06    13 36.06   +26 56.7    0.086    0.992    93.6    81.5    16.4
    2004 01 16    09 55.71   +19 12.8    0.060    1.036   150.1    28.3    14.1
    2004 01 26    07 07.27   +01 02.4    0.097    1.072   152.8    24.8    15.1
    2004 02 05    06 15.41   -05 04.9    0.160    1.098   131.5    42.2    16.8
    2004 02 15    05 59.03   -06 54.7    0.229    1.116   119.0    50.7    17.8
    2004 02 25    05 56.12   -07 22.1    0.297    1.126   109.8    55.8    18.5
    2004 03 06    05 59.95   -07 20.5    0.363    1.126   102.2    59.4    19.1
    2004 03 16    06 07.57   -07 09.6    0.424    1.119    95.6    62.3    19.5
    2004 03 26    06 17.61   -06 57.5    0.477    1.102    89.5    64.8    19.8
    2004 04 05    06 29.17   -06 49.1    0.521    1.077    83.8    67.4    20.0
    2004 04 15    06 41.48   -06 44.8    0.553    1.043    78.4    70.4    20.2
    2004 04 25    06 53.95   -06 43.0    0.572    1.001    73.0    73.9    20.3
    2004 05 05    07 05.74   -06 39.4    0.576    0.950    67.4    78.6    20.3
    2004 05 15    07 15.62   -06 22.4    0.563    0.891    61.4    84.9    20.4
    
    Kyle E. Smalley              (C) Copyright 2003 MPC           M.P.E.C. 2003-Y69
    

    Read MPEC 2003-Y68 Read MPEC 2003-Y70


    MPEC number:

    Enter an MPEC number in one of the following forms:

    • 1997-B01 (the full form)
    • J97B01 (the packed version of the full form)
    • B01 (the abbreviated form)